Weather History for Clarksburg, WV

Change the Weather History Date:

Sunday, January 5, 2014

  Actual Average Record
Temperature  
Mean Temperature 36 °F -  
Max Temperature 55 °F 40 °F 73 °F (1950)
Min Temperature 19 °F 22 °F -3 °F (1968)
Degree Days  
Heating Degree Days 29    
Moisture  
Dew Point 27 °F    
Average Humidity 68    
Maximum Humidity 81    
Minimum Humidity 51    
Precipitation  
Precipitation 0.00 in - - ()
Sea Level Pressure  
Sea Level Pressure 29.88 in    
Wind  
Wind Speed 1 mph (South)    
Max Wind Speed 13 mph    
Max Gust Speed -    
Visibility 10 miles    
Events      
Averages and records for this station are not official NWS values.
T = Trace of Precipitation, MM = Missing Value Source: NWS Daily Summary

Daily Weather History Graph

Daily Weather History Graph

Search for Another Location

Airport:

Trip Planner

Search our weather history database for the weather conditions in past years. The results will help you decide how hot, cold, wet, or windy it might be!

Date:

Astronomy

Jan. 05, 2014 Rise Set
Actual Time 7:40 AM EST 5:12 PM EST
Civil Twilight 7:11 AM EST 5:41 PM EST
Nautical Twilight 6:37 AM EST 6:15 PM EST
Astronomical Twilight 6:05 AM EST 6:47 PM EST
Moon 10:23 AM EST (1/5) 10:36 PM EST (1/5)
Length of Visible Light 10h 30m
Length of Day
9h 31m
Waxing Crescent, 24% of the Moon is Illuminated
Jan 5
Waxing Crescent
Jan 7
First Quarter
Jan 15
Full
Jan 24
Last Quarter
Jan 30
New

Hourly Weather History & Observations

Time (EST) Temp. Windchill Dew Point Humidity Pressure Visibility Wind Dir Wind Speed Gust Speed Precip Events Conditions
12:53 AM 21.0 °F - 14.0 °F 74% 30.15 in 10.0 mi Calm Calm - N/A   Clear
1:53 AM 19.9 °F - 14.0 °F 78% 30.15 in 10.0 mi Calm Calm - N/A   Clear
2:53 AM 19.9 °F - 15.1 °F 81% 30.15 in 10.0 mi Calm Calm - N/A   Clear
3:53 AM 19.9 °F - 14.0 °F 78% 30.13 in 10.0 mi Calm Calm - N/A   Clear
4:53 AM 23.0 °F - 18.0 °F 81% 30.10 in 10.0 mi Calm Calm - N/A   Overcast
5:53 AM 24.1 °F - 19.0 °F 81% 30.11 in 10.0 mi Calm Calm - N/A   Overcast
6:53 AM 26.1 °F - 18.0 °F 71% 30.11 in 10.0 mi Calm Calm - N/A   Overcast
7:53 AM 27.0 °F - 21.0 °F 78% 30.11 in 10.0 mi Calm Calm - N/A   Overcast
8:53 AM 27.0 °F - 21.0 °F 78% 30.11 in 10.0 mi Calm Calm - N/A   Overcast
9:53 AM 34.0 °F - 24.1 °F 67% 30.08 in 10.0 mi Calm Calm - N/A   Scattered Clouds
10:53 AM 35.1 °F - 24.1 °F 64% 30.04 in 10.0 mi Calm Calm - N/A   Clear
11:53 AM 39.0 °F - 26.1 °F 60% 29.97 in 10.0 mi Calm Calm - N/A   Clear
12:53 PM 44.1 °F - 28.0 °F 53% 29.90 in 10.0 mi Calm Calm - N/A   Scattered Clouds
1:53 PM 46.0 °F - 28.9 °F 51% 29.85 in 10.0 mi Calm Calm - N/A   Scattered Clouds
2:53 PM 45.0 °F - 32.0 °F 60% 29.80 in 10.0 mi Calm Calm - N/A   Overcast
3:53 PM 45.0 °F 43.5 °F 32.0 °F 60% 29.75 in 10.0 mi WNW 3.5 mph - N/A   Mostly Cloudy
4:53 PM 43.0 °F - 34.0 °F 71% 29.72 in 10.0 mi Calm Calm - N/A   Clear
5:53 PM 48.9 °F - 37.9 °F 66% 29.68 in 10.0 mi SE 4.6 mph - N/A   Overcast
6:53 PM 50.0 °F - 39.9 °F 68% 29.64 in 10.0 mi South 3.5 mph - N/A   Scattered Clouds
7:53 PM 43.0 °F - 35.1 °F 74% 29.62 in 10.0 mi Calm Calm - N/A   Clear
8:53 PM 48.0 °F - 37.9 °F 68% 29.57 in 10.0 mi South 6.9 mph - N/A   Clear
9:53 PM 53.1 °F - 39.9 °F 61% 29.53 in 10.0 mi South 6.9 mph - N/A   Scattered Clouds
10:53 PM 53.1 °F - 39.9 °F 61% 29.49 in 10.0 mi South 6.9 mph - 0.00 in   Overcast
11:53 PM 55.0 °F - 39.9 °F 57% 29.42 in 10.0 mi South 12.7 mph - N/A   Overcast